• Join FlightAware (Why Join?)
  • Login
  • US Flag 
08:30AM EDT


 

Airport Tracker/Info


-or-


 

Live Flight TrackerFlight Track Log ✈ SWA2863 ✈ 11-Jul-2013 ✈ KLAX - KOAK

Flight Track Log - Related Links

Times and Time Zones

All times are in EDT time to prevent confusion due to time zone crossing. See the SWA2863 flight status page for this flight to view local times or setup timezone preferences in your user account.

Time Position Orientation Groundspeed Altitude Reporting Facility
EDT Latitude Longitude Course Direction KTS MPH feet Rate Location/Type
07:00PM 33.9447 -118.4619 266° West 185 213 1,700  Level Los Angeles Center
07:01PM 33.9400 -118.5450 266° West 259 298 3,800 3,000 Climbing Los Angeles Center
07:02PM 33.9447 -118.6344 274° West 274 315 7,900 2,460 Climbing Los Angeles Center
07:03PM 34.0089 -118.6967 321° Northwest 283 326 9,000 600 Climbing Los Angeles Center
07:04PM 34.0842 -118.6658 19° North 286 329 9,200 1,740 Climbing Los Angeles Center
07:05PM 34.1656 -118.6700 358° North 286 329 12,700 3,060 Climbing Los Angeles Center
07:06PM 34.2536 -118.6833 353° North 309 356 15,600 2,640 Climbing Los Angeles Center
07:07PM 34.3542 -118.6994 352° North 348 400 18,200 2,460 Climbing Los Angeles Center
07:08PM 34.4653 -118.7156 353° North 398 458 20,800 2,460 Climbing Los Angeles Center
07:09PM 34.6014 -118.7583 345° North 425 489 23,400 2,400 Climbing Los Angeles Center
07:10PM 34.7122 -118.8167 337° Northwest 432 497 25,800 1,980 Climbing Los Angeles Center
07:11PM 34.8275 -118.8847 334° Northwest 467 537 27,500 1,380 Climbing Los Angeles Center
07:12PM 34.9264 -118.9839 321° Northwest 480 552 28,700 1,860 Climbing Los Angeles Center
07:13PM 35.0306 -119.0819 322° Northwest 474 545 31,400 2,100 Climbing Los Angeles Center
07:14PM 35.1578 -119.2047 322° Northwest 482 555 33,100 1,740 Climbing Los Angeles Center
07:15PM 35.2642 -119.3094 321° Northwest 490 564 35,100 1,380 Climbing Los Angeles Center
07:17PM 35.3681 -119.4139 321° Northwest 487 560 36,000 420 Climbing Los Angeles Center
07:18PM 35.4736 -119.5167 322° Northwest 487 560 36,000  Level Los Angeles Center
07:19PM 35.5786 -119.6222 321° Northwest 490 564 36,000  Level Los Angeles Center
07:20PM 35.7044 -119.7478 321° Northwest 490 564 36,000  Level Los Angeles Center
07:21PM 35.8086 -119.8525 321° Northwest 489 563 36,000  Level Los Angeles Center
07:22PM 35.9106 -119.9553 321° Northwest 487 560 36,000  Level Oakland Center
07:23PM 36.0339 -120.0800 321° Northwest 483 556 36,000  Level Oakland Center
07:24PM 36.1369 -120.1839 321° Northwest 481 554 36,000 -780 Level Oakland Center
07:25PM 36.2386 -120.2872 321° Northwest 476 548 34,500 -2,280 Descending Oakland Center
07:26PM 36.3414 -120.3917 321° Northwest 479 551 31,400 -2,820 Descending Oakland Center
07:27PM 36.4425 -120.4967 320° Northwest 478 550 28,800 -2,040 Descending Oakland Center
07:28PM 36.5397 -120.5947 321° Northwest 456 525 27,300 -1,440 Descending Oakland Center
07:29PM 36.6319 -120.6928 320° Northwest 440 506 25,900 -1,680 Descending Oakland Center
07:30PM 36.7403 -120.8044 320° Northwest 422 486 23,900 -1,440 Descending Oakland Center
07:31PM 36.8206 -120.8942 318° Northwest 405 466 23,000 -1,560 Descending Oakland Center
07:32PM 36.8981 -120.9853 317° Northwest 385 443 20,800 -2,100 Descending Oakland Center
07:33PM 36.9753 -121.0736 318° Northwest 377 434 18,700 -2,100 Descending Oakland Center
07:34PM 37.0542 -121.1656 317° Northwest 358 412 16,500 -1,980 Descending Oakland Center
07:35PM 37.1186 -121.2411 317° Northwest 350 403 14,700 -1,860 Descending Oakland Center
07:36PM 37.1869 -121.3194 318° Northwest 335 386 12,700 -2,040 Descending Oakland Center
07:37PM 37.2769 -121.3881 329° Northwest 331 381 10,600 -1,320 Descending Oakland Center
07:38PM 37.3475 -121.4369 331° Northwest 308 354 10,000 -780 Descending Oakland Center
07:39PM 37.4000 -121.5000 316° Northwest 292 336 9,100 -1,020 Descending Northern Cal TRACON
07:40PM 37.4667 -121.5667 322° Northwest 291 335 8,100 -1,020 Descending Northern Cal TRACON
07:41PM 37.5167 -121.6500 307° West 289 333 7,100 -1,020 Descending Northern Cal TRACON
07:42PM 37.5500 -121.7333 297° West 280 322 6,100 -600 Descending Northern Cal TRACON
07:43PM 37.5667 -121.8333 282° West 275 316 5,900 -540 Descending Northern Cal TRACON
07:44PM 37.5833 -121.9333 282° West 273 314 5,000 -720 Descending Northern Cal TRACON
07:45PM 37.6000 -122.0167 284° West 238 274 4,500 -780 Descending Northern Cal TRACON
07:46PM 37.6167 -122.0833 288° West 196 226 3,600 -1,200 Descending Northern Cal TRACON
07:47PM 37.6333 -122.1167 302° West 155 178 2,300 -1,320 Descending Northern Cal TRACON
07:48PM 37.6667 -122.1667 310° West 141 162 1,000 -960 Descending Northern Cal TRACON
07:49PM 37.7000 -122.2000 322° Northwest 127 146 300 -660 Descending Northern Cal TRACON
07:51PM 37.7167 -122.2167 270° West  Level FlightAware Approximate
07:58PM 37.7213 -122.2207 270° West  Level Estimated
07:59PM 37.7167 -122.2167 270° West  Level FlightAware Approximate